Location: Unspecified
(0.0000°N, 0.0000°E)
Time: 18:49:38
(UTC+00:00)

DMSP F15 (USA 147) - Visible Passes

Search period start: 17 May 2026 00:00
Search period end: 27 May 2026 00:00
Orbit: 826 x 842 km, 99.0° (Epoch: 17 May)

Date Brightness Start Highest point End Pass type
(mag) Time Alt. Az. Time Alt. Az. Time Alt. Az.
17 May 6.7 18:59:03 17° E 18:59:15 17° ENE 19:02:32 10° NE visible
17 May 6.9 20:40:42 28° WNW 20:40:42 28° WNW 20:44:04 10° NW visible
18 May 6.1 20:23:39 44° WNW 20:23:39 44° WNW 20:27:45 10° NNW visible
19 May 5.4 20:06:35 64° NNW 20:06:35 64° NNW 20:11:09 10° NNW visible
20 May 5.2 19:49:32 60° NE 19:49:32 60° NE 19:54:18 10° N visible
21 May 5.6 19:32:29 39° ENE 19:32:29 39° ENE 19:37:12 10° N visible
21 May 8.0 21:14:07 11° W 21:14:07 11° W 21:14:44 10° WNW visible
22 May 6.2 19:15:25 25° ENE 19:15:26 25° ENE 19:19:47 10° NNE visible
22 May 7.5 20:57:04 19° W 20:57:04 19° W 20:59:30 10° NW visible
23 May 6.7 18:58:22 16° E 18:58:41 16° ENE 19:01:51 10° NE visible
23 May 6.8 20:40:01 30° WNW 20:40:01 30° WNW 20:43:32 10° NW visible
24 May 6.0 20:22:58 47° WNW 20:22:58 47° WNW 20:27:11 10° NNW visible
25 May 5.3 20:05:53 68° NNW 20:05:53 68° NNW 20:10:34 10° NNW visible
26 May 5.2 19:48:50 59° NE 19:48:50 59° NE 19:53:42 10° N visible
